Terminal Aerodrome Forecast
Issued by NWS

Home | Current Version | Previous Version | Text Only | Print | Product List | Glossary On
Versions: 1 2 3 4 5 6 7 8 9 10 11 12 13 14 15 16 17 18 19 20 21 22 23 24 25 26 27 28 29 30
741
FTUS44 KFWD 290520
TAFAFW
TAF
KAFW 290520Z 2906/3006 14008KT P6SM SKC
     FM291100 17011KT P6SM BKN015
     FM291600 17015KT P6SM SCT035=

USA.gov is the U.S. government's official web portal to all federal, state and local government web resources and services.